| time (UTC) | temp F | wind direction | speed MPH | gust MPH | rain 1hr in | rain 24hr in | rain mn in | humidity % | barometer mb |
| 20260507153636 | 73 | 72 | 11.0 | 15.0 | 0.00 | 0.00 | 0.00 | 60 | 1013.0 |
| 20260507152636 | 73 | 71 | 11.0 | 16.0 | 0.00 | 0.00 | 0.00 | 61 | 1013.0 |
| 20260507151636 | 73 | 71 | 11.0 | 16.0 | 0.00 | 0.00 | 0.00 | 63 | 1013.0 |
| 20260507150635 | 73 | 71 | 11.0 | 16.0 | 0.00 | 0.00 | 0.00 | 63 | 1013.0 |
| 20260507145635 | 73 | 71 | 11.0 | 16.0 | 0.00 | 0.00 | 0.00 | 63 | 1013.0 |
| 20260507144635 | 73 | 71 | 11.0 | 16.0 | 0.00 | 0.00 | 0.00 | 63 | 1013.0 |
| 20260507143635 | 73 | 71 | 11.0 | 16.0 | 0.00 | 0.00 | 0.00 | 64 | 1013.0 |
| 20260507142635 | 70 | 72 | 11.0 | 18.0 | 0.00 | 0.00 | 0.00 | 65 | 1013.0 |
| 20260507141634 | 72 | 72 | 11.0 | 18.0 | 0.00 | 0.00 | 0.00 | 65 | 1013.0 |
| 20260507140634 | 70 | 72 | 11.0 | 18.0 | 0.00 | 0.00 | 0.00 | 65 | 1013.0 |
| 20260507135634 | 72 | 72 | 11.0 | 18.0 | 0.00 | 0.00 | 0.00 | 65 | 1013.0 |
| 20260507134634 | 72 | 72 | 11.0 | 18.0 | 0.00 | 0.00 | 0.00 | 65 | 1013.0 |
| 20260507133633 | 71 | 72 | 8.0 | 21.0 | 0.00 | 0.00 | 0.00 | 65 | 1013.0 |
| 20260507132633 | 73 | 72 | 9.0 | 21.0 | 0.00 | 0.00 | 0.00 | 65 | 1012.0 |
| 20260507131632 | 66 | 72 | 8.0 | 21.0 | 0.00 | 0.00 | 0.00 | 74 | 1012.0 |
| 20260507130632 | 66 | 72 | 8.0 | 21.0 | 0.00 | 0.00 | 0.00 | 74 | 1012.0 |
| 20260507125632 | 68 | 72 | 9.0 | 21.0 | 0.00 | 0.00 | 0.00 | 74 | 1012.0 |
| 20260507124631 | 68 | 72 | 9.0 | 21.0 | 0.00 | 0.00 | 0.00 | 74 | 1012.0 |
| 20260507123631 | 66 | 72 | 9.0 | 21.0 | 0.00 | 0.00 | 0.00 | 74 | 1012.0 |
| 20260507122631 | 64 | 79 | 8.0 | 21.0 | 0.00 | 0.00 | 0.00 | 74 | 1012.0 |
| 20260507121631 | 65 | 79 | 8.0 | 22.0 | 0.00 | 0.00 | 0.00 | 74 | 1012.0 |
| 20260507120630 | 65 | 79 | 8.0 | 22.0 | 0.00 | 0.00 | 0.00 | 74 | 1012.0 |
| 20260507115630 | 64 | 79 | 8.0 | 21.0 | 0.00 | 0.00 | 0.00 | 73 | 1012.0 |
| 20260507114629 | 65 | 79 | 8.0 | 21.0 | 0.00 | 0.00 | 0.00 | 72 | 1012.0 |
| 20260507113629 | 66 | 79 | 8.0 | 22.0 | 0.00 | 0.00 | 0.00 | 72 | 1012.0 |
| 20260507112629 | 65 | 72 | 8.0 | 23.0 | 0.00 | 0.00 | 0.00 | 71 | 1011.0 |
| 20260507111628 | 66 | 72 | 8.0 | 23.0 | 0.00 | 0.00 | 0.00 | 71 | 1011.0 |
| 20260507110628 | 68 | 72 | 8.0 | 23.0 | 0.00 | 0.00 | 0.00 | 71 | 1011.0 |
| 20260507105628 | 65 | 72 | 8.0 | 23.0 | 0.00 | 0.00 | 0.00 | 67 | 1011.0 |
| 20260507104627 | 63 | 72 | 8.0 | 23.0 | 0.00 | 0.00 | 0.00 | 65 | 1011.0 |
| 20260507103627 | 65 | 72 | 8.0 | 23.0 | 0.00 | 0.00 | 0.00 | 65 | 1011.0 |
| 20260507102627 | 64 | 72 | 8.0 | 24.0 | 0.00 | 0.00 | 0.00 | 63 | 1011.0 |
| 20260507101627 | 65 | 72 | 9.0 | 24.0 | 0.00 | 0.00 | 0.00 | 63 | 1011.0 |
| 20260507100626 | 64 | 72 | 8.0 | 24.0 | 0.00 | 0.00 | 0.00 | 63 | 1011.0 |
| 20260507095626 | 65 | 72 | 8.0 | 24.0 | 0.00 | 0.00 | 0.00 | 63 | 1011.0 |
| 20260507094626 | 66 | 72 | 8.0 | 24.0 | 0.00 | 0.00 | 0.00 | 63 | 1011.0 |
| 20260507093626 | 68 | 72 | 9.0 | 24.0 | 0.00 | 0.00 | 0.00 | 63 | 1011.0 |
| 20260507092625 | 65 | 71 | 8.0 | 23.0 | 0.00 | 0.00 | 0.00 | 64 | 1011.0 |
| 20260507091624 | 67 | 71 | 9.0 | 23.0 | 0.00 | 0.00 | 0.00 | 64 | 1011.0 |
| 20260507090624 | 67 | 71 | 9.0 | 23.0 | 0.00 | 0.00 | 0.00 | 64 | 1011.0 |
| 20260507085624 | 65 | 77 | 8.0 | 21.0 | 0.00 | 0.00 | 0.00 | 64 | 1011.0 |
| 20260507084624 | 67 | 77 | 8.0 | 21.0 | 0.00 | 0.00 | 0.00 | 64 | 1011.0 |
| 20260507083623 | 67 | 77 | 8.0 | 21.0 | 0.00 | 0.00 | 0.00 | 64 | 1011.0 |
| 20260507082623 | 69 | 77 | 9.0 | 21.0 | 0.00 | 0.00 | 0.00 | 64 | 1011.0 |
| 20260507081623 | 65 | 77 | 9.0 | 21.0 | 0.00 | 0.00 | 0.00 | 64 | 1011.0 |
| 20260507080622 | 65 | 77 | 9.0 | 21.0 | 0.00 | 0.00 | 0.00 | 64 | 1011.0 |
| 20260507075622 | 64 | 77 | 8.0 | 21.0 | 0.00 | 0.00 | 0.00 | 63 | 1011.0 |
| 20260507074622 | 66 | 77 | 9.0 | 21.0 | 0.00 | 0.00 | 0.00 | 63 | 1011.0 |
| 20260507073621 | 65 | 91 | 8.0 | 18.0 | 0.00 | 0.00 | 0.00 | 63 | 1011.0 |
| 20260507072621 | 67 | 91 | 8.0 | 19.0 | 0.00 | 0.00 | 0.00 | 63 | 1012.0 |
| 20260507071621 | 66 | 91 | 8.0 | 18.0 | 0.00 | 0.00 | 0.00 | 63 | 1012.0 |
| 20260507070620 | 68 | 91 | 8.0 | 18.0 | 0.00 | 0.00 | 0.00 | 63 | 1012.0 |
| 20260507065620 | 70 | 91 | 8.0 | 19.0 | 0.00 | 0.00 | 0.00 | 63 | 1012.0 |
| 20260507064620 | 68 | 93 | 8.0 | 20.0 | 0.00 | 0.00 | 0.00 | 63 | 1012.0 |
| 20260507063619 | 70 | 93 | 8.0 | 20.0 | 0.00 | 0.00 | 0.00 | 63 | 1012.0 |
| 20260507062619 | 72 | 93 | 8.0 | 20.0 | 0.00 | 0.00 | 0.00 | 63 | 1013.0 |
| 20260507061619 | 70 | 93 | 8.0 | 20.0 | 0.00 | 0.00 | 0.00 | 62 | 1013.0 |
| 20260507060619 | 70 | 93 | 8.0 | 20.0 | 0.00 | 0.00 | 0.00 | 62 | 1013.0 |
| 20260507055618 | 67 | 93 | 8.0 | 20.0 | 0.00 | 0.00 | 0.00 | 62 | 1013.0 |
| 20260507054618 | 68 | 93 | 8.0 | 20.0 | 0.00 | 0.00 | 0.00 | 62 | 1013.0 |
| 20260507053618 | 70 | 93 | 8.0 | 20.0 | 0.00 | 0.00 | 0.00 | 62 | 1013.0 |
| 20260507052617 | 67 | 96 | 8.0 | 21.0 | 0.00 | 0.00 | 0.00 | 61 | 1013.0 |
| 20260507051617 | 69 | 96 | 8.0 | 21.0 | 0.00 | 0.00 | 0.00 | 61 | 1013.0 |
| 20260507050617 | 71 | 96 | 8.0 | 21.0 | 0.00 | 0.00 | 0.00 | 61 | 1013.0 |
| 20260507045616 | 71 | 96 | 8.0 | 21.0 | 0.00 | 0.00 | 0.00 | 61 | 1013.0 |
| 20260507044616 | 72 | 96 | 8.0 | 21.0 | 0.00 | 0.00 | 0.00 | 61 | 1013.0 |
| 20260507043616 | 71 | 97 | 8.0 | 20.0 | 0.00 | 0.00 | 0.00 | 59 | 1013.0 |
| 20260507042615 | 73 | 97 | 9.0 | 20.0 | 0.00 | 0.00 | 0.00 | 59 | 1013.0 |
| 20260507041615 | 72 | 97 | 8.0 | 20.0 | 0.00 | 0.00 | 0.00 | 56 | 1013.0 |
| 20260507040615 | 74 | 97 | 8.0 | 20.0 | 0.00 | 0.00 | 0.00 | 56 | 1013.0 |
| 20260507035614 | 76 | 97 | 9.0 | 20.0 | 0.00 | 0.00 | 0.00 | 56 | 1013.0 |
| 20260507034614 | 70 | 94 | 8.0 | 18.0 | 0.00 | 0.00 | 0.00 | 50 | 1013.0 |
| 20260507033614 | 71 | 94 | 8.0 | 18.0 | 0.00 | 0.00 | 0.00 | 50 | 1013.0 |
| 20260507032614 | 72 | 94 | 8.0 | 18.0 | 0.00 | 0.00 | 0.00 | 50 | 1012.0 |
| 20260507031613 | 73 | 94 | 8.0 | 18.0 | 0.00 | 0.00 | 0.00 | 50 | 1012.0 |
| 20260507030613 | 75 | 94 | 9.0 | 19.0 | 0.00 | 0.00 | 0.00 | 50 | 1012.0 |
| 20260507025612 | 73 | 94 | 8.0 | 18.0 | 0.00 | 0.00 | 0.00 | 48 | 1012.0 |
| 20260507024612 | 74 | 94 | 9.0 | 19.0 | 0.00 | 0.00 | 0.00 | 46 | 1012.0 |
| 20260507023612 | 72 | 93 | 8.0 | 21.0 | 0.00 | 0.00 | 0.00 | 46 | 1012.0 |
| 20260507022611 | 74 | 93 | 9.0 | 21.0 | 0.00 | 0.00 | 0.00 | 46 | 1011.0 |
| 20260507021611 | 71 | 93 | 8.0 | 21.0 | 0.00 | 0.00 | 0.00 | 46 | 1011.0 |
| 20260507020611 | 73 | 93 | 8.0 | 21.0 | 0.00 | 0.00 | 0.00 | 46 | 1011.0 |
| 20260507015610 | 75 | 93 | 9.0 | 21.0 | 0.00 | 0.00 | 0.00 | 46 | 1011.0 |
| 20260507014610 | 73 | 100 | 10.0 | 21.0 | 0.00 | 0.00 | 0.00 | 46 | 1011.0 |
| 20260507013609 | 74 | 100 | 10.0 | 21.0 | 0.00 | 0.00 | 0.00 | 46 | 1011.0 |
| 20260507012609 | 75 | 100 | 10.0 | 21.0 | 0.00 | 0.00 | 0.00 | 46 | 1010.0 |
| 20260507011609 | 76 | 100 | 10.0 | 22.0 | 0.00 | 0.00 | 0.00 | 46 | 1010.0 |
| 20260507010608 | 84 | 100 | 10.0 | 22.0 | 0.00 | 0.00 | 0.00 | 51 | 1010.0 |
| 20260507005608 | 84 | 100 | 10.0 | 22.0 | 0.00 | 0.00 | 0.00 | 51 | 1010.0 |
| 20260507004608 | 84 | 100 | 10.0 | 22.0 | 0.00 | 0.00 | 0.00 | 43 | 1010.0 |
| 20260507003607 | 84 | 100 | 10.0 | 22.0 | 0.00 | 0.00 | 0.00 | 43 | 1010.0 |
| 20260507002607 | 74 | 97 | 13.0 | 22.0 | 0.00 | 0.00 | 0.00 | 38 | 1009.0 |
| 20260507001607 | 75 | 97 | 13.0 | 22.0 | 0.00 | 0.00 | 0.00 | 38 | 1009.0 |
| 20260507000607 | 75 | 103 | 11.0 | 20.0 | 0.00 | 0.00 | 0.00 | 36 | 1009.0 |
| 20260506235606 | 77 | 103 | 11.0 | 20.0 | 0.00 | 0.00 | 0.00 | 36 | 1009.0 |
| 20260506234606 | 79 | 103 | 11.0 | 20.0 | 0.00 | 0.00 | 0.00 | 36 | 1009.0 |
| 20260506233606 | 79 | 103 | 11.0 | 20.0 | 0.00 | 0.00 | 0.00 | 36 | 1009.0 |
| 20260506232605 | 80 | 103 | 11.0 | 20.0 | 0.00 | 0.00 | 0.00 | 36 | 1008.0 |
| 20260506231605 | 80 | 103 | 11.0 | 20.0 | 0.00 | 0.00 | 0.00 | 36 | 1008.0 |
| 20260506230605 | 78 | 103 | 11.0 | 20.0 | 0.00 | 0.00 | 0.00 | 35 | 1008.0 |
| 20260506225605 | 78 | 103 | 11.0 | 20.0 | 0.00 | 0.00 | 0.00 | 35 | 1008.0 |
| 20260506224604 | 79 | 103 | 11.0 | 20.0 | 0.00 | 0.00 | 0.00 | 35 | 1008.0 |
| 20260506223604 | 80 | 103 | 11.0 | 20.0 | 0.00 | 0.00 | 0.00 | 35 | 1008.0 |
| 20260506222603 | 80 | 90 | 13.0 | 15.0 | 0.00 | 0.00 | 0.00 | 34 | 1008.0 |
| 20260506221603 | 82 | 90 | 13.0 | 15.0 | 0.00 | 0.00 | 0.00 | 34 | 1008.0 |
| 20260506220602 | 84 | 90 | 13.0 | 15.0 | 0.00 | 0.00 | 0.00 | 34 | 1008.0 |
| 20260506215602 | 84 | 90 | 13.0 | 15.0 | 0.00 | 0.00 | 0.00 | 34 | 1008.0 |
| 20260506214602 | 83 | 90 | 11.0 | 14.0 | 0.00 | 0.00 | 0.00 | 33 | 1008.0 |
| 20260506213602 | 84 | 90 | 11.0 | 14.0 | 0.00 | 0.00 | 0.00 | 33 | 1008.0 |
| 20260506212601 | 85 | 90 | 11.0 | 14.0 | 0.00 | 0.00 | 0.00 | 33 | 1008.0 |
| 20260506211600 | 87 | 90 | 12.0 | 14.0 | 0.00 | 0.00 | 0.00 | 33 | 1008.0 |
| 20260506210600 | 83 | 90 | 11.0 | 14.0 | 0.00 | 0.00 | 0.00 | 35 | 1008.0 |
| 20260506205600 | 85 | 90 | 12.0 | 14.0 | 0.00 | 0.00 | 0.00 | 35 | 1008.0 |
| 20260506204559 | 85 | 90 | 12.0 | 14.0 | 0.00 | 0.00 | 0.00 | 35 | 1008.0 |
| 20260506203559 | 83 | 90 | 12.0 | 14.0 | 0.00 | 0.00 | 0.00 | 36 | 1008.0 |
| 20260506202559 | 83 | 83 | 9.0 | 14.0 | 0.00 | 0.00 | 0.00 | 35 | 1009.0 |
| 20260506201559 | 84 | 83 | 9.0 | 14.0 | 0.00 | 0.00 | 0.00 | 35 | 1009.0 |
| 20260506200558 | 84 | 83 | 9.0 | 14.0 | 0.00 | 0.00 | 0.00 | 35 | 1009.0 |
| 20260506195558 | 86 | 83 | 9.0 | 14.0 | 0.00 | 0.00 | 0.00 | 34 | 1009.0 |
| 20260506194558 | 86 | 83 | 8.0 | 14.0 | 0.00 | 0.00 | 0.00 | 34 | 1009.0 |
| 20260506193557 | 88 | 83 | 9.0 | 14.0 | 0.00 | 0.00 | 0.00 | 34 | 1009.0 |
| 20260506192557 | 85 | 74 | 10.0 | 14.0 | 0.00 | 0.00 | 0.00 | 39 | 1010.0 |
| 20260506191557 | 83 | 74 | 10.0 | 14.0 | 0.00 | 0.00 | 0.00 | 39 | 1010.0 |
| 20260506190556 | 84 | 74 | 10.0 | 14.0 | 0.00 | 0.00 | 0.00 | 39 | 1010.0 |
| 20260506185556 | 84 | 74 | 10.0 | 14.0 | 0.00 | 0.00 | 0.00 | 39 | 1010.0 |
| 20260506184555 | 84 | 74 | 10.0 | 14.0 | 0.00 | 0.00 | 0.00 | 40 | 1010.0 |
| 20260506183555 | 84 | 74 | 10.0 | 14.0 | 0.00 | 0.00 | 0.00 | 40 | 1010.0 |
| 20260506182555 | 81 | 79 | 11.0 | 16.0 | 0.00 | 0.00 | 0.00 | 46 | 1011.0 |
| 20260506181554 | 81 | 79 | 11.0 | 16.0 | 0.00 | 0.00 | 0.00 | 46 | 1011.0 |
| 20260506180554 | 81 | 79 | 11.0 | 16.0 | 0.00 | 0.00 | 0.00 | 46 | 1011.0 |
| 20260506175553 | 82 | 79 | 11.0 | 16.0 | 0.00 | 0.00 | 0.00 | 46 | 1011.0 |
| 20260506174553 | 79 | 75 | 11.0 | 17.0 | 0.00 | 0.00 | 0.00 | 46 | 1011.0 |
| 20260506173553 | 79 | 75 | 11.0 | 17.0 | 0.00 | 0.00 | 0.00 | 46 | 1011.0 |
| 20260506172552 | 81 | 75 | 12.0 | 17.0 | 0.00 | 0.00 | 0.00 | 46 | 1012.0 |
| 20260506171552 | 79 | 75 | 12.0 | 17.0 | 0.00 | 0.00 | 0.00 | 48 | 1012.0 |
| 20260506170552 | 79 | 75 | 12.0 | 17.0 | 0.00 | 0.00 | 0.00 | 49 | 1012.0 |
| 20260506165551 | 79 | 75 | 12.0 | 17.0 | 0.00 | 0.00 | 0.00 | 49 | 1012.0 |
| 20260506164551 | 79 | 75 | 12.0 | 17.0 | 0.00 | 0.00 | 0.00 | 49 | 1012.0 |
| 20260506163551 | 78 | 75 | 12.0 | 17.0 | 0.00 | 0.00 | 0.00 | 52 | 1012.0 |
| 20260506162550 | 77 | 72 | 11.0 | 18.0 | 0.00 | 0.00 | 0.00 | 56 | 1013.0 |
| 20260506161550 | 79 | 72 | 11.0 | 18.0 | 0.00 | 0.00 | 0.00 | 57 | 1013.0 |
| 20260506160550 | 81 | 72 | 12.0 | 18.0 | 0.00 | 0.00 | 0.00 | 58 | 1013.0 |
| 20260506155549 | 76 | 72 | 12.0 | 18.0 | 0.00 | 0.00 | 0.00 | 58 | 1013.0 |
| 20260506154549 | 76 | 72 | 12.0 | 18.0 | 0.00 | 0.00 | 0.00 | 58 | 1013.0 |